Погода в Левашах

Россия / Республика Дагестан     42°25′54″N   47°19′22″E
темп.,
°C
ветер,
м/с
пор.,
м/с
влажн.,
%
обл.,
%
осадки,
мм/ч
давл.,
гПа
погр.,
м
26 июня, вс
вс2600:00+14ююз2294100 0.1 101028
03:00+12ююз2295100 2.4 101153
06:00+14ююз2285100 0.4 101096
09:00+19всв2262100 0.5 1007564
12:00+21всв2366100 0.6 1006860
15:00+20ссв3378100 1.9 1006673
18:00+17ссв2286100 1.6 1007244
21:00+15зсз2292100 4.4 101029
27 июня, пн
пн2700:00+14зюз2289100 0.1 100915
03:00+13юз22930 0.1 101021
06:00+15зюз22870 0.0 101095
09:00+20ссз11650 0.0 1009593
12:00+23ссв436138 0.0 10091293
15:00+21с556748 0.6 1010910
18:00+19ссз347981 0.6 1010581
21:00+16з2389100 0.6 101129
28 июня, вт
вт2800:00+15зюз2291100 0.0 101134
03:00+14зсз349414 0.0 101162
06:00+15з24890 0.0 1011221
09:00+20сз45723 0.0 1009747
12:00+20с456317 0.0 1010977
15:00+20ссз666019 0.2 10111081
18:00+17с466937 0.1 1013630
21:00+12ссз12760 0.1 101612
29 июня, ср
ср2900:00+12юз217312 0.0 101613
03:00+12юз11780 0.0 101513
06:00+15юз11730 0.0 101566
09:00+19всв22540 0.0 10141056
12:00+21всв434840 0.3 10141469
15:00+21св225181 0.6 10141428
18:00+18всв326937 0.0 1015377
21:00+14юв229298 0.8 101626
30 июня, чт
чт3000:00+13ююз1188100 0.0 101610
03:00+13юв118652 0.0 101510
06:00+14вюв12846 0.0 1015125
09:00+17всв217336 0.0 1014705
12:00+16св338692 0.1 1014503
15:00+15всв2290100 0.9 1015427
18:00+14св1189100 0.7 1016263
21:00+12зсз119471 1.6 101737